Location: Arcusa
(42.3167°N, 0.0833°W)
Time: 21:12:26
(UTC+00:00)

FENGYUN 3A - Pass Details

Date: 25 January 2020
Orbit: 824 x 835 km, 98.4° (Epoch: 25 February)

Event Time Altitude Azimuth Distance (km) Brightness Sun altitude
Rises 05:00:40 0° 17° (NNE) 3,379 7.0 -25.8°
Reaches altitude 10° 05:03:04 10° 21° (NNE) 2,442 6.3 -25.4°
Maximum altitude 05:08:25 60° 101° (E) 949 4.2 -24.4°
Drops below altitude 10° 05:13:44 10° 181° (S) 2,433 6.1 -23.4°
Sets 05:16:07 0° 185° (S) 3,364 6.8 -23.0°
